CAPE
0 0 7 0 0 0 0 0 0 0 0 0 0 0 0 0 0 0 0 0 0 0 0 0 0 0 0 0 0 0 0 0 0 0 0 0 0 0 0 0 1 0 0 0 0 0 0 13 5 22 124 0 1572 1073
0 0 0 8 0 0 0 0 0 0 0 1 0 0 0 0 0 0 0 0 0 0 0 0 0 0 0 0 0 0 0 0 12 0 0 0 0 0 0 0 0 0 0 0 0 0 985 1349 1139 2221 709 1943 1583 1211
0 0 0 2 0 0 0 0 0 0 0 1 1 0 0 0 0 0 0 0 0 0 0 0 0 0 0 0 0 0 0 0 0 0 0 0 6 0 0 13 4 62 138 12 0 638 1534 1738 1549 1380 1618 1578 1393 1298
4 9 2 0 2 0 0 0 0 0 0 1 1 0 0 0 0 0 0 0 0 0 0 0 0 0 0 0 0 0 0 0 0 0 0 0 0 0 0 0 2 24 132 178 402 656 761 969 742 744 943 1283 1285 1553
2 0 2 3 8 0 0 0 0 0 1 0 0 0 0 0 0 0 0 0 0 0 0 0 0 0 0 0 0 0 0 0 0 0 0 0 0 0 0 0 6 30 74 80 211 244 449 303 200 523 1099 1239 1079 1103
0 0 6 7 0 0 0 0 0 0 0 0 0 0 0 0 0 0 0 0 0 0 0 0 0 0 0 0 0 0 0 0 0 0 0 0 0 0 0 0 91 288 91 131 31 66 250 304 0 19 777 1094 1078 1133
0 0 2 3 0 6 0 0 0 0 0 0 0 0 0 0 0 0 0 0 0 0 0 0 11 14 0 0 0 0 0 0 0 0 0 0 0 0 0 0 36 28 6 1 8 55 180 162 276 381 329 286 592 695
0 0 3 5 0 3 0 0 0 0 0 0 0 0 0 0 0 0 0 0 0 0 0 0 27 21 4 0 0 0 0 0 0 0 0 0 0 0 0 0 0 15 0 0 0 1 0 0 143 201 15 91 97 62
1 0 0 1 2 8 0 0 0 0 0 0 0 0 0 0 0 0 0 0 0 0 0 0 1 3 11 32 68 59 35 3 3 0 0 0 0 0 0 0 0 0 4 0 0 0 0 1 46 96 39 0 0 16
6 2 0 0 0 0 0 0 0 0 0 0 0 0 0 11 0 0 0 0 1 0 0 0 1 20 0 13 55 9 39 29 20 0 1 2 0 0 25 24 1 10 0 0 0 0 0 0 4 24 16 5 0 0
17 7 2 1 0 0 0 0 0 0 0 0 0 9 23 0 0 5 1 1 0 0 0 0 0 0 14 9 12 0 22 90 6 24 26 25 14 107 126 90 67 25 2 0 0 0 0 0 0 0 16 12 1 65
23 13 3 1 0 0 0 0 1 0 0 0 0 0 0 2 8 6 0 0 0 0 28 9 0 17 76 152 48 8 3 79 19 109 96 14 51 194 99 29 7 0 5 14 5 0 0 0 0 0 16 39 63 315
3 10 4 0 0 0 0 0 0 0 0 0 0 3 1 8 7 0 0 0 0 16 181 148 124 159 137 156 175 42 0 66 225 90 71 70 146 166 32 0 0 0 0 3 0 0 0 0 0 0 11 42 52 219
3 7 0 2 0 0 0 0 0 0 0 0 12 0 0 0 0 0 0 61 38 156 155 137 140 131 124 58 204 22 80 155 115 82 13 112 61 15 2 0 0 0 0 0 0 0 0 0 0 0 1 21 114 126
4 5 10 0 0 0 0 0 0 0 0 4 15 0 0 0 0 80 10 8 93 121 152 79 76 52 3 36 69 61 54 36 17 9 26 41 5 7 6 0 0 0 0 0 0 0 0 0 0 0 11 86 74 141
15 29 6 0 1 1 0 0 0 0 1 6 15 6 31 21 2 37 100 105 91 32 35 32 24 10 14 17 20 16 31 28 4 7 4 5 12 0 0 0 0 0 0 0 2 2 0 0 0 0 35 165 94 94
1 3 1 0 0 0 0 0 0 0 6 5 14 0 0 5 38 116 113 23 27 20 13 31 13 26 35 20 12 24 6 0 3 1 1 0 0 0 0 0 0 0 0 1 6 16 9 5 16 114 215 2 0 83
16 0 0 0 0 0 0 0 8 5 0 0 0 28 25 94 46 0 1 23 30 18 19 13 6 7 13 17 18 1 4 10 6 0 0 0 0 0 0 0 0 3 3 7 10 8 4 30 141 109 77 0 0 0
0 0 0 0 0 0 9 14 12 18 4 5 11 39 58 69 42 27 29 7 4 0 0 0 0 0 11 18 15 3 0 0 0 0 0 0 0 0 1 3 7 14 12 13 39 22 31 43 19 27 26 7 2 11
0 0 0 0 0 5 28 28 11 38 17 20 57 40 11 3 6 14 13 0 0 0 0 0 10 14 10 4 0 0 0 0 0 0 0 0 0 1 1 4 1 3 3 9 2 0 1 2 1 1 2 2 2 2
0 0 0 0 0 0 13 33 7 0 1 30 6 8 1 28 3 9 1 0 0 0 0 20 18 6 0 0 0 0 0 0 0 1 0 0 1 2 0 0 0 0 0 2 1 2 2 3 3 2 3 4 3 3
0 0 0 0 1 32 5 19 4 9 15 9 23 20 26 16 4 0 0 0 6 13 5 0 0 2 0 2 1 1 0 0 1 0 1 1 4 1 0 3 0 2 3 1 0 0 1 4 1 0 2 3 1 0
0 0 16 15 2 0 0 1 22 35 11 11 4 3 5 1 0 0 2 1 0 0 0 0 0 1 0 0 1 0 0 0 1 5 0 0 0 4 5 0 0 0 0 1 0 0 0 0 0 0 0 0 0 0
0 0 5 12 0 0 8 10 5 9 6 1 1 1 0 0 0 0 0 0 0 0 0 0 0 1 2 2 3 0 0 0 0 0 2 16 21 3 0 4 1 0 0 0 0 0 0 0 0 0 0 0 0 0
1 0 0 0 7 25 25 18 9 0 0 4 2 0 1 0 0 0 0 0 0 0 1 2 1 5 1 0 2 0 0 0 5 2 21 18 7 5 2 1 2 0 0 0 0 0 5 9 23 18 17 10 3 6
2 0 2 19 5 9 9 1 0 0 1 0 2 1 0 1 1 0 0 1 0 0 7 2 0 1 5 2 1 1 0 1 3 8 13 5 3 4 12 7 1 0 10 25 33 39 61 68 40 18 0 2 1 0
0 6 10 21 7 1 0 0 0 1 1 2 2 2 2 0 1 0 0 1 8 8 16 7 3 2 5 4 2 2 5 11 21 29 23 20 25 39 16 2 9 49 55 53 72 52 19 2 0 0 0 1 6 4
0 0 0 1 0 0 0 1 2 1 2 3 1 1 1 1 0 1 5 3 1 5 9 14 13 15 9 0 13 25 25 20 14 40 44 32 20 3 0 0 0 0 0 0 11 18 21 13 11 8 7 5 3 2
0 0 0 1 2 2 2 0 6 2 0 5 8 4 1 0 0 0 0 0 0 0 3 8 10 8 4 8 33 38 38 48 48 2 0 0 0 0 0 0 0 0 0 0 0 0 0 0 0 0 0 0 0 0
2 0 0 3 3 2 8 12 2 0 0 1 0 0 0 0 0 0 0 0 0 0 3 16 11 13 41 68 74 53 14 4 7 6 6 5 6 2 4 3 2 0 0 0 0 0 0 0 0 0 0 1 0 1
2 0 9 14 6 6 0 4 13 20 19 5 4 0 0 0 1 1 1 1 2 3 3 3 13 22 14 3 5 10 0 0 7 5 9 11 11 4 8 10 7 11 3 7 6 5 2 1 5 8 6 2 0 0
6 8 4 0 0 2 0 0 0 0 0 5 1 0 0 1 0 3 0 1 5 6 16 11 9 0 5 0 0 0 0 0 0 0 0 0 0 0 5 11 2 0 0 2 1 8 0 0 0 0 0 0 0 0
14 4 3 4 1 1 0 0 0 0 0 0 0 0 0 0 0 0 0 0 0 0 0 2 5 1 0 0 0 0 0 0 0 0 0 0 0 0 0 0 0 0 0 0 0 0 0 0 0 0 0 0 0 0
CIN
-0 -0 -0 -0 -0 -0 -0 -0 -0 -0 -0 -0 -0 -0 -0 -0 -0 -0 -0 -0 -0 -0 -0 -0 -0 -0 -0 -0 -0 -0 -0 -0 -0 -0 -0 -0 -0 -0 -0 -0 -14 -0 -0 -0 -0 -0 -0 -72 -24 -24 -87 -0 -64 -107
-0 -0 -0 -0 -0 -0 -0 -0 -0 -0 -0 -0 -0 -0 -0 -0 -0 -0 -0 -0 -0 -0 -0 -0 -0 -0 -0 -0 -0 -0 -0 -0 -23 -0 -0 -0 -0 -0 -0 -0 -0 -1 -0 -0 -0 -0 -24 -27 -39 -51 -138 -39 -68 -122
-0 -0 -0 -1 -0 -0 -0 -0 -0 -0 -0 -0 -0 -0 -0 -0 -0 -0 -0 -0 -0 -0 -0 -0 -0 -0 -0 -0 -0 -0 -0 -0 -0 -0 -0 -0 -6 -0 -0 -30 -80 -56 -69 -9 -0 -20 -29 -41 -61 -68 -59 -38 -21 -35
-3 -2 -5 -0 -1 -0 -0 -0 -0 -0 -0 -0 -0 -0 -0 -0 -0 -0 -0 -0 -0 -0 -0 -0 -0 -0 -0 -0 -0 -0 -0 -0 -0 -0 -0 -0 -0 -0 -0 -0 -55 -60 -79 -66 -41 -79 -47 -66 -108 -58 -42 -41 -38 -8
-4 -0 -2 -2 -1 -0 -0 -0 -0 -0 -0 -0 -0 -0 -0 -0 -0 -0 -0 -0 -0 -0 -0 -0 -0 -0 -0 -0 -0 -0 -0 -0 -0 -0 -0 -0 -0 -0 -0 -0 -66 -134 -117 -76 -67 -94 -37 -93 -134 -89 -12 -5 -36 -34
-0 -0 -3 -2 -0 -0 -0 -0 -0 -0 -0 -0 -0 -0 -0 -0 -0 -0 -0 -0 -0 -0 -0 -0 -0 -0 -0 -0 -0 -0 -0 -0 -0 -0 -0 -0 -0 -0 -0 -0 -24 -29 -86 -86 -88 -81 -39 -105 -0 -44 -40 -4 -3 -2
-0 -0 -1 -1 -0 -0 -0 -0 -0 -0 -0 -0 -0 -0 -0 -0 -0 -0 -0 -0 -0 -0 -0 -0 -15 -11 -0 -0 -0 -0 -0 -0 -0 -0 -0 -0 -0 -0 -0 -0 -7 -17 -38 -47 -33 -85 -17 -60 -19 -42 -35 -76 -20 -8
-0 -0 -1 -0 -0 -0 -0 -0 -0 -0 -0 -0 -0 -0 -0 -0 -0 -0 -0 -0 -0 -0 -0 -0 -4 -0 -2 -1 -0 -0 -0 -0 -0 -0 -0 -0 -0 -0 -0 -0 -0 -13 -0 -0 -30 -11 -0 -0 -25 -54 -73 -37 -53 -70
-0 -0 -0 -1 -0 -0 -0 -0 -0 -0 -0 -0 -0 -0 -0 -0 -0 -2 -0 -0 -0 -0 -0 -0 -9 -1 -81 -1 -1 -10 -6 -4 -6 -0 -0 -0 -0 -0 -0 -0 -0 -0 -2 -0 -0 -0 -0 -22 -26 -50 -50 -0 -0 -45
-3 -8 -0 -0 -0 -0 -0 -0 -0 -0 -0 -0 -0 -0 -0 -1 -0 -0 -0 -1 -0 -0 -0 -0 -15 -29 -0 -35 -19 -68 -53 -1 -5 -0 -3 -4 -0 -0 -4 -2 -0 -30 -0 -0 -0 -0 -0 -0 -31 -47 -65 -72 -2 -0
-1 -4 -0 -0 -0 -0 -0 -0 -0 -0 -0 -0 -0 -1 -11 -0 -3 -9 -2 -0 -0 -0 -0 -0 -0 -0 -67 -19 -25 -0 -20 -6 -6 -11 -0 -1 -2 -32 -40 -48 -53 -46 -17 -0 -0 -0 -0 -0 -0 -0 -15 -51 -8 -41
-1 -1 -1 -1 -0 -0 -0 -0 -0 -0 -0 -0 -0 -0 -1 -3 -17 -1 -0 -0 -0 -0 -5 -1 -0 -10 -4 -13 -19 -14 -15 -20 -17 -21 -10 -7 -26 -32 -42 -66 -98 -0 -92 -145 -47 -0 -0 -0 -0 -0 -6 -18 -14 -24
-22 -0 -2 -0 -0 -0 -0 -0 -0 -0 -0 -0 -0 -11 -3 -5 -1 -0 -0 -0 -0 -4 -4 -17 -4 -2 -6 -3 -2 -28 -0 -30 -0 -8 -5 -20 -29 -12 -58 -4 -0 -0 -0 -96 -0 -0 -0 -0 -0 -0 -17 -16 -18 -20
-4 -1 -2 -8 -0 -0 -0 -0 -0 -0 -0 -0 -0 -0 -1 -0 -0 -0 -0 -14 -42 -5 -8 -14 -16 -7 -25 -11 -1 -14 -8 -5 -6 -3 -15 -16 -42 -81 -52 -0 -0 -0 -0 -0 -0 -0 -0 -0 -0 -0 -3 -32 -28 -21
-1 -1 -5 -0 -0 -0 -0 -0 -0 -0 -0 -1 -8 -0 -0 -0 -0 -9 -49 -35 -2 -3 -1 -10 -6 -7 -16 -6 -8 -3 -15 -6 -15 -32 -35 -18 -42 -54 -58 -14 -0 -0 -0 -0 -0 -0 -0 -0 -0 -0 -63 -79 -84 -61
-0 -0 -0 -0 -1 -3 -0 -0 -0 -0 -9 -7 -2 -6 -2 -14 -41 -15 -3 -15 -13 -7 -17 -3 -3 -5 -2 -4 -1 -6 -2 -6 -3 -1 -8 -34 -38 -10 -0 -0 -0 -0 -0 -0 -7 -0 -0 -0 -0 -0 -98 -49 -81 -67
-2 -0 -4 -0 -0 -0 -0 -0 -0 -0 -3 -8 -17 -0 -0 -14 -17 -10 -30 -14 -31 -11 -8 -2 -4 -3 -3 -3 -0 -18 -13 -8 -2 -13 -13 -6 -0 -0 -0 -0 -0 -0 -0 -12 -4 -2 -7 -9 -73 -43 -35 -196 -8 -100
-5 -0 -0 -0 -0 -0 -0 -0 -6 -1 -0 -0 -26 -24 -27 -5 -36 -0 -4 -18 -12 -3 -5 -4 -3 -9 -1 -2 -1 -9 -13 -9 -15 -0 -0 -0 -0 -0 -0 -0 -0 -3 -3 -1 -8 -6 -14 -50 -29 -51 -54 -0 -0 -0
-0 -0 -0 -0 -0 -0 -6 -18 -17 -0 -31 -6 -12 -17 -5 -9 -14 -13 -1 -6 -5 -0 -0 -0 -0 -0 -3 -16 -6 -2 -1 -0 -0 -0 -0 -0 -0 -0 -29 -21 -6 -2 -9 -3 -1 -14 -35 -51 -88 -66 -78 -95 -46 -22
-0 -0 -0 -0 -0 -7 -14 -7 -16 -1 -17 -20 -9 -26 -26 -22 -22 -2 -3 -0 -0 -0 -0 -0 -2 -10 -7 -4 -1 -0 -0 -0 -0 -0 -0 -0 -0 -0 -0 -1 -0 -20 -8 -1 -1 -0 -14 -22 -23 -0 -0 -0 -0 -0
-0 -0 -0 -0 -0 -0 -44 -10 -4 -0 -21 -4 -24 -9 -1 -3 -5 -2 -3 -0 -0 -0 -0 -9 -4 -2 -0 -0 -0 -0 -0 -0 -0 -0 -0 -0 -0 -10 -0 -20 -22 -12 -0 -6 -0 -0 -3 -0 -0 -0 -0 -0 -0 -0
-0 -0 -0 -0 -19 -11 -11 -1 -9 -10 -5 -3 -2 -1 -1 -8 -13 -0 -0 -0 -0 -1 -5 -0 -0 -65 -0 -33 -0 -0 -0 -0 -0 -0 -0 -0 -0 -0 -0 -0 -0 -0 -14 -0 -0 -0 -0 -0 -0 -0 -0 -0 -0 -0
-0 -0 -10 -6 -1 -0 -0 -0 -3 -1 -2 -3 -4 -1 -3 -2 -0 -0 -0 -1 -0 -0 -0 -0 -0 -0 -0 -0 -4 -0 -0 -0 -0 -0 -0 -0 -0 -1 -3 -2 -0 -2 -0 -0 -0 -0 -0 -0 -0 -0 -0 -0 -0 -0
-0 -0 -12 -1 -0 -0 -4 -0 -2 -1 -2 -0 -2 -0 -1 -0 -0 -0 -0 -0 -0 -0 -0 -0 -0 -0 -0 -0 -0 -0 -0 -0 -0 -9 -11 -2 -2 -3 -0 -2 -10 -0 -0 -0 -0 -0 -0 -0 -0 -0 -0 -0 -0 -0
-1 -0 -0 -0 -7 -0 -0 -2 -3 -0 -0 -0 -3 -2 -0 -0 -0 -0 -0 -0 -0 -0 -3 -8 -0 -0 -0 -3 -1 -0 -0 -0 -12 -6 -13 -9 -10 -19 -26 -46 -62 -88 -5 -0 -0 -2 -33 -36 -30 -35 -31 -24 -18 -13
-2 -0 -13 -1 -6 -2 -1 -0 -0 -0 -0 -1 -0 -0 -0 -0 -0 -0 -0 -0 -0 -0 -13 -0 -1 -1 -1 -7 -12 -29 -12 -17 -49 -28 -28 -36 -35 -23 -33 -40 -15 -4 -72 -59 -43 -11 -11 -10 -7 -14 -7 -6 -7 -0
-0 -1 -1 -8 -3 -2 -0 -0 -0 -1 -0 -2 -0 -0 -0 -0 -0 -0 -0 -1 -1 -0 -0 -7 -11 -19 -18 -31 -47 -48 -58 -79 -60 -33 -33 -39 -36 -24 -19 -6 -2 -18 -24 -6 -22 -11 -3 -2 -0 -0 -0 -3 -3 -4
-0 -0 -0 -0 -0 -0 -0 -0 -0 -0 -0 -0 -1 -10 -0 -0 -0 -3 -3 -12 -8 -5 -4 -23 -31 -40 -52 -3 -53 -70 -55 -54 -44 -35 -21 -14 -12 -7 -0 -0 -0 -0 -0 -0 -28 -25 -12 -4 -2 -6 -7 -5 -10 -13
-0 -0 -0 -0 -0 -0 -1 -1 -0 -1 -1 -1 -0 -0 -1 -0 -0 -0 -0 -0 -0 -0 -31 -22 -27 -50 -67 -58 -27 -16 -19 -13 -3 -4 -0 -0 -0 -0 -0 -0 -0 -0 -0 -0 -0 -0 -0 -0 -0 -5 -0 -0 -0 -0
-0 -0 -0 -0 -0 -1 -3 -3 -0 -0 -1 -3 -0 -0 -0 -0 -0 -0 -0 -0 -0 -0 -65 -30 -31 -19 -6 -7 -9 -2 -5 -16 -10 -3 -2 -3 -3 -1 -1 -14 -4 -4 -0 -0 -0 -0 -0 -0 -0 -0 -0 -3 -2 -7
-5 -0 -3 -0 -0 -0 -0 -5 -8 -4 -5 -2 -2 -0 -0 -1 -23 -42 -50 -63 -60 -43 -21 -13 -13 -13 -4 -0 -4 -3 -0 -0 -38 -31 -21 -8 -10 -9 -11 -10 -7 -4 -5 -4 -8 -22 -11 -9 -12 -6 -4 -7 -0 -0
-6 -0 -1 -0 -0 -0 -0 -0 -0 -0 -2 -32 -17 -0 -0 -4 -1 -23 -0 -78 -57 -40 -30 -34 -1 -0 -9 -5 -0 -0 -0 -0 -0 -0 -0 -0 -0 -0 -16 -7 -16 -0 -0 -1 -2 -7 -0 -0 -0 -0 -0 -0 -0 -0
-1 -8 -5 -3 -2 -10 -0 -0 -0 -0 -0 -0 -2 -0 -0 -0 -0 -0 -0 -0 -3 -2 -0 -4 -20 -23 -0 -0 -0 -0 -0 -0 -0 -0 -0 -0 -0 -0 -0 -0 -0 -0 -0 -0 -0 -0 -0 -0 -0 -0 -0 -0 -0 -0
Wind_Speed
18 19 21 24 25 26 25 26 27 26 27 27 27 26 26 25 25 23 22 23 20 24 30 23 22 23 24 20 22 23 20 19 19 22 25 26 29 28 29 31 25 22 23 26 29 32 40 33 35 30 23 16 11 8
20 20 21 23 25 25 25 26 24 25 26 27 27 26 26 25 25 23 21 23 23 25 27 31 32 30 28 23 22 22 22 20 21 20 20 23 26 24 25 29 26 28 25 25 25 32 26 24 21 19 7 11 9 5
20 19 22 23 24 25 25 24 23 24 26 26 26 26 26 25 24 22 23 24 24 23 28 27 26 26 19 22 23 24 20 21 21 20 21 21 22 22 24 24 26 22 21 19 20 22 18 15 17 17 14 13 13 7
19 19 20 22 24 25 25 24 24 24 26 26 26 26 26 25 25 24 23 24 22 22 21 16 11 18 19 21 21 24 27 24 24 25 24 23 23 21 23 23 24 22 22 24 20 20 18 16 16 21 16 14 15 11
20 20 19 21 23 25 24 25 25 25 25 26 26 26 26 25 26 26 25 22 24 22 21 25 27 21 15 17 21 22 23 25 26 27 28 30 25 26 27 23 23 20 22 23 22 22 21 22 18 17 17 18 15 14
22 21 16 17 23 25 25 25 25 25 25 25 26 26 25 25 24 20 18 14 17 18 20 21 18 15 13 15 18 20 19 21 25 26 28 28 27 27 24 23 18 17 18 19 23 20 21 18 20 21 13 10 14 15
23 22 16 16 22 24 24 25 25 24 25 25 25 26 26 25 22 19 20 20 22 21 19 22 20 16 11 14 16 16 17 20 21 25 29 29 30 27 27 31 16 16 18 18 19 19 21 24 21 18 20 19 19 20
24 22 19 19 20 22 23 23 24 24 24 25 25 26 26 26 24 22 21 23 21 20 20 20 19 18 10 15 15 12 14 16 20 23 24 27 27 25 29 26 25 22 22 25 24 21 22 24 24 23 24 21 22 23
23 22 20 20 20 20 21 23 23 23 23 24 25 25 18 14 17 16 16 17 19 20 20 21 22 19 21 19 15 17 18 19 19 19 22 22 27 27 24 28 29 24 23 21 21 22 24 25 27 25 25 26 27 29
19 19 18 16 17 20 20 21 22 22 22 22 19 13 13 14 13 17 17 18 19 20 21 22 18 16 14 20 14 16 18 17 20 23 19 25 28 28 27 24 22 17 18 21 26 28 28 29 28 25 25 23 22 22
22 18 16 14 12 16 19 20 20 20 19 13 13 13 13 12 16 18 19 20 19 20 20 23 26 18 12 9 11 17 15 16 17 18 17 20 20 18 14 12 11 13 16 19 23 27 30 31 31 30 28 29 28 21
22 16 14 11 14 18 22 22 18 17 15 18 20 19 16 16 17 19 21 20 21 20 17 17 23 21 14 13 16 17 19 18 17 14 14 17 12 13 12 14 17 18 21 23 24 26 27 28 30 30 27 27 25 20
22 14 13 12 17 23 24 23 22 23 21 17 14 15 15 18 20 21 22 21 21 18 16 18 17 16 16 16 18 17 16 23 15 15 15 15 10 12 15 18 20 23 25 28 29 29 29 28 28 28 28 27 22 20
19 14 16 18 23 22 23 22 21 20 18 17 17 17 20 20 22 22 24 18 21 18 16 16 19 17 17 18 18 20 21 21 19 19 18 13 15 17 19 21 24 26 28 31 33 33 33 30 31 30 29 31 31 30
26 17 20 21 23 23 23 21 22 20 18 19 18 18 23 25 21 20 9 22 19 13 14 15 19 16 17 19 19 20 20 17 17 19 18 17 18 21 23 25 30 32 34 35 34 34 34 34 32 32 30 30 28 25
16 17 22 15 21 24 21 22 21 19 18 19 20 20 20 21 23 24 15 15 16 17 16 17 18 19 21 19 20 21 21 18 18 18 18 20 24 27 31 34 36 36 36 37 35 31 29 30 30 31 32 29 28 27
32 23 30 28 24 24 24 22 21 21 20 19 20 21 21 18 20 14 15 16 16 18 18 19 19 20 18 19 20 18 19 17 17 19 22 26 31 34 35 36 36 35 32 30 29 27 24 23 23 26 25 20 21 22
24 26 31 26 24 23 23 23 21 20 21 23 22 18 19 17 12 13 17 17 17 17 17 18 18 19 20 19 19 17 17 19 21 24 27 30 29 26 26 24 23 23 22 22 22 20 20 14 12 15 13 13 17 21
28 33 36 36 28 21 21 22 21 20 25 22 22 19 16 19 15 15 18 16 18 16 18 20 21 22 21 19 19 19 22 24 25 25 27 27 25 20 18 13 15 10 2 12 14 15 16 14 12 12 12 12 11 10
23 28 28 27 21 18 20 21 21 20 20 20 18 18 19 19 18 17 14 14 17 19 18 20 20 19 19 18 20 22 23 23 23 20 19 20 15 13 10 9 15 16 16 16 15 14 15 12 10 9 9 13 14 15
25 26 26 23 19 21 19 18 18 18 19 18 16 18 20 22 14 15 17 19 20 20 21 17 18 17 18 20 21 22 20 20 20 15 15 14 13 13 14 10 8 17 16 21 18 13 12 12 10 10 8 8 7 8
20 30 21 21 18 21 20 20 17 19 18 20 22 19 17 17 18 18 20 20 20 18 18 20 20 20 21 20 18 17 15 13 14 14 16 15 15 14 14 11 4 22 22 21 21 19 12 10 13 14 15 15 14 15
24 21 20 20 18 18 21 18 18 17 17 17 17 18 18 18 19 18 18 18 19 20 19 20 20 19 18 16 15 15 14 12 10 8 9 12 18 17 21 18 20 20 19 19 21 23 24 23 18 15 18 20 22 21
18 17 18 19 21 19 19 19 17 17 16 17 17 18 18 17 17 17 18 18 18 18 17 17 17 16 16 16 15 17 16 14 11 9 8 20 23 26 28 28 29 30 30 31 32 30 28 28 29 28 27 25 24 24
19 18 18 19 19 19 19 18 17 17 18 17 17 18 18 17 18 17 17 17 16 17 18 18 18 18 18 17 17 21 19 17 6 5 6 6 20 20 12 22 31 32 32 31 30 28 25 23 24 25 25 25 25 24
18 18 18 18 18 18 17 19 19 19 19 18 19 18 18 17 17 18 18 16 16 16 18 19 17 14 12 18 23 28 24 21 20 24 24 18 27 28 27 26 25 24 22 22 21 19 19 19 20 20 19 18 19 18
18 18 17 16 17 17 17 17 18 18 18 19 18 19 18 17 16 18 17 16 16 12 9 12 18 13 16 23 22 22 24 24 24 23 24 23 22 20 21 20 14 18 18 17 18 18 19 19 19 18 18 17 14 13
17 17 19 19 18 19 18 19 19 19 19 19 18 18 17 17 16 18 19 19 20 20 21 23 24 26 26 23 22 22 22 22 20 19 21 20 18 18 17 16 19 19 19 19 16 15 15 15 16 16 15 13 14 15
18 19 20 19 19 19 18 19 18 18 20 19 17 18 20 20 22 23 24 25 23 21 22 22 23 24 22 21 20 21 21 21 20 19 18 18 18 18 19 17 16 16 16 17 17 17 17 16 16 16 15 15 15 16
20 23 18 17 17 19 19 19 12 5 2 8 17 19 15 19 25 28 27 26 25 23 22 21 19 20 22 22 21 21 7 12 14 15 17 17 17 17 15 15 15 15 15 15 15 15 13 13 15 14 15 16 15 13
22 21 17 18 13 14 20 23 27 23 28 27 27 29 24 24 26 25 27 26 23 20 19 19 19 20 10 7 10 15 14 15 16 17 17 17 18 18 17 16 15 16 17 17 16 13 14 15 10 11 14 16 18 19
21 21 20 17 16 15 17 19 17 18 22 24 22 20 22 24 25 26 25 26 23 21 21 19 19 9 13 14 14 15 15 16 15 16 17 18 19 19 20 18 17 18 18 17 16 17 17 17 18 18 18 18 17 18
19 19 19 22 21 19 20 19 20 19 21 21 23 25 22 14 8 17 21 22 21 13 11 12 10 12 13 13 14 14 14 14 15 15 15 16 17 17 18 19 20 19 18 18 18 18 17 17 18 18 18 18 18 18
Wind_Direction
309 309 305 301 301 305 312 314 314 318 317 316 316 317 314 312 309 302 277 280 289 274 267 281 287 279 278 287 271 281 277 279 280 270 267 266 268 267 270 268 274 270 270 268 266 268 267 276 281 290 300 316 0 28
302 305 303 298 296 301 308 311 322 317 313 312 313 312 313 311 308 303 280 289 293 275 270 272 273 273 270 278 275 277 277 282 283 276 274 271 267 274 276 272 277 269 273 267 267 269 283 295 294 304 308 319 330 9
299 301 299 294 292 295 301 307 317 317 310 307 307 310 311 309 305 301 281 283 286 281 276 270 273 276 281 274 273 266 275 284 280 288 283 277 272 286 277 278 273 286 289 273 276 290 285 292 305 308 312 308 313 324
296 296 295 291 287 289 293 299 308 315 309 308 303 305 305 305 299 294 284 273 278 282 275 287 294 287 291 282 275 271 273 281 282 279 276 273 271 285 280 283 276 279 286 281 280 290 293 306 310 316 301 308 307 331
292 293 293 288 282 283 287 292 297 304 305 306 301 302 299 299 292 283 272 264 261 275 272 271 277 281 296 291 280 277 273 273 273 271 267 265 273 280 282 282 279 282 280 278 280 296 293 291 304 312 321 305 308 314
286 288 292 288 279 278 280 285 288 295 300 301 298 297 294 294 289 282 273 281 290 286 276 270 289 294 301 301 291 280 278 277 270 268 268 269 270 272 275 274 289 291 287 284 280 297 305 300 310 300 301 332 315 313
282 283 285 287 280 274 275 280 283 291 294 296 293 291 285 282 281 271 263 268 270 276 271 272 282 288 303 309 293 290 281 275 276 270 263 265 265 274 266 262 281 291 292 292 304 298 294 299 298 304 340 326 309 311
275 277 277 280 279 274 273 278 280 285 288 289 286 283 274 262 261 261 260 255 261 265 264 269 282 281 313 300 292 295 289 283 279 273 270 264 267 271 266 270 278 281 282 286 289 295 301 307 308 310 314 317 316 313
269 269 270 273 273 272 272 274 276 280 283 284 279 271 288 294 275 274 281 278 262 259 264 266 271 284 290 283 300 291 288 276 285 275 270 267 262 265 271 275 274 283 279 283 291 295 296 302 310 310 309 310 309 303
262 263 262 265 270 268 268 270 273 275 277 279 284 313 309 292 287 270 268 258 256 257 260 261 275 294 269 276 299 294 290 285 280 275 281 265 266 271 277 280 278 281 288 289 283 286 289 294 297 305 305 305 307 311
255 252 256 252 262 266 261 263 265 268 267 280 295 298 298 290 264 254 251 247 250 257 261 258 230 274 296 78 314 260 287 296 290 283 277 279 271 289 296 300 306 301 300 301 300 296 292 290 293 293 297 299 300 306
250 238 241 239 252 252 247 247 254 255 262 266 269 266 269 265 258 248 244 244 246 254 262 263 249 264 292 299 267 265 275 279 287 304 290 282 292 299 303 301 302 304 301 301 303 302 302 300 296 294 297 296 302 301
246 220 227 227 240 236 234 236 238 238 253 260 264 266 260 252 245 241 237 242 245 252 265 260 267 277 277 282 280 279 281 252 308 288 295 296 304 309 304 301 300 300 297 295 296 299 299 299 300 304 299 304 302 300
235 205 221 228 227 229 228 230 230 235 241 245 247 253 242 240 234 232 232 250 248 257 264 266 262 276 282 276 274 263 266 269 286 285 290 318 309 311 310 309 303 299 297 295 293 293 291 295 296 298 301 297 298 300
219 203 211 217 217 218 219 223 221 229 237 236 244 244 232 227 244 241 283 229 249 267 264 267 254 277 270 266 264 263 266 288 295 287 301 315 312 300 305 303 298 296 295 294 294 293 290 289 291 293 296 298 303 306
177 193 209 209 212 209 213 212 217 226 239 240 240 234 238 233 225 233 256 253 251 256 255 259 261 262 254 259 256 255 265 275 282 294 317 310 303 298 294 292 292 296 294 290 291 297 299 299 292 291 296 297 295 293
179 197 190 192 199 200 202 207 215 225 232 237 228 231 236 245 238 257 257 247 255 251 250 239 247 242 261 263 263 285 276 290 308 316 313 313 300 299 300 301 299 295 302 296 286 291 304 306 307 302 301 303 303 297
178 179 179 187 190 194 202 209 220 228 229 223 224 232 237 245 257 256 249 242 252 255 254 261 264 255 258 261 264 275 289 297 311 312 315 313 288 276 280 272 264 255 248 263 295 319 318 340 340 320 339 336 320 302
167 168 167 171 183 198 204 212 219 224 216 225 226 236 235 224 235 232 224 253 254 274 273 262 253 249 251 256 255 275 288 298 276 279 294 308 307 288 275 262 315 320 191 324 8 17 13 4 345 300 11 13 8 19
169 170 176 183 194 205 208 211 213 216 217 222 232 231 231 230 233 242 262 276 271 262 278 253 248 249 246 264 273 273 280 277 270 258 263 305 269 249 253 296 353 6 8 14 11 9 20 358 343 339 359 33 57 61
166 172 176 186 198 200 204 207 212 223 216 221 232 221 219 212 247 256 264 266 266 260 254 279 254 255 267 266 289 289 268 286 285 236 202 200 207 191 173 189 285 359 18 51 36 9 5 11 7 13 17 17 360 9
175 168 184 189 200 198 205 211 214 210 218 215 208 223 231 242 251 261 261 260 255 267 260 244 243 249 256 258 253 246 232 225 208 209 194 179 170 177 173 201 265 51 23 69 85 59 344 349 28 38 41 44 35 44
168 181 189 194 198 200 199 213 209 214 214 223 227 227 239 247 251 255 243 239 235 235 242 235 234 239 230 216 215 236 231 220 235 254 235 203 136 142 87 29 43 53 42 38 53 60 59 58 51 46 58 62 68 67
185 188 190 189 187 191 201 202 214 218 228 226 228 230 235 235 242 234 225 226 227 231 221 218 219 220 205 194 213 197 192 198 213 224 233 116 67 70 76 100 104 102 111 115 105 83 70 72 75 76 77 75 73 75
181 184 186 187 194 195 195 203 211 217 216 223 221 218 219 230 222 222 222 220 228 225 216 206 208 202 185 182 186 163 173 179 238 239 214 9 55 51 33 99 81 94 96 92 103 110 118 123 119 111 104 98 99 109
178 184 186 191 195 196 200 195 200 200 203 205 205 206 209 214 215 214 215 228 224 221 208 204 210 217 209 183 169 142 152 160 163 150 143 156 126 91 82 77 83 109 122 114 113 123 121 119 95 92 69 76 85 71
176 179 187 196 196 194 194 196 199 202 204 200 200 197 196 198 204 208 218 223 216 234 231 193 175 174 168 164 168 167 155 152 144 138 136 136 131 121 85 71 53 112 124 126 102 100 45 49 53 66 74 71 39 28
180 185 177 182 185 185 182 181 184 187 187 190 195 197 197 191 188 180 177 177 172 171 168 167 163 161 160 166 166 161 158 155 160 163 127 110 99 58 41 48 52 41 28 20 35 24 23 28 46 46 34 15 358 357
173 170 169 176 176 178 181 177 181 183 186 197 194 184 174 180 178 173 170 169 171 172 173 176 175 170 170 170 177 165 146 138 126 96 79 78 71 67 70 67 65 47 40 33 25 24 20 16 10 7 11 7 355 350
156 148 164 176 181 180 181 184 197 239 276 194 170 167 170 173 172 169 170 170 172 175 177 183 184 186 171 151 146 155 305 353 6 51 73 69 71 77 75 69 67 62 53 48 41 30 14 9 359 355 356 358 1 15
143 148 162 156 161 167 168 156 143 155 143 145 151 147 161 170 170 174 175 175 180 186 195 186 177 168 209 348 280 66 35 17 360 352 354 47 41 38 37 39 42 35 24 16 32 52 42 18 49 34 11 1 352 339
154 156 156 156 160 168 168 165 170 170 164 164 170 177 171 171 162 165 183 173 178 180 180 192 196 353 49 52 22 22 31 23 12 10 14 17 19 9 11 34 27 19 14 34 27 16 10 346 344 345 346 352 359 355
164 166 165 155 161 171 170 176 177 184 178 175 167 149 108 76 4 221 197 190 197 120 88 245 21 19 37 29 32 28 25 24 25 19 16 16 16 17 18 11 1 7 15 6 358 8 15 8 349 354 351 354 355 357